#timestamp,LO_Frequency,Hit,StdDev 
1598112015.6,286047006.8,P
1598112035.4,286047003.4,P
1598112055.3,286046999.7,N
1598112075.1,286046998.6,N
1598112095.8,286046995.8,N
1598112115.7,286046993.9,N
1598112135.5,286046990.1,N
1598112155.4,286046989.2,N
1598112175.2,286046988.3,N
1598112195.0,286046984.9,N
1598112195.9,286046984.9,N
1598112215.8,286046981.3,N
1598112235.6,286046980.0,N
1598112255.4,286046978.1,N
1598112275.3,286046980.0,N
1598112295.1,286046978.5,N
1598112315.9,286046977.2,N
1598112335.7,286046974.9,N
1598112355.5,286046972.8,N
1598112375.4,286046971.3,N
1598112395.2,286046974.3,N
1598112415.1,286046975.3,N
1598112416.0,286046975.3,N
1598112435.8,286046972.8,N
1598112455.6,286046971.3,N
1598112475.5,286046972.1,N
1598112495.3,286046969.3,N
1598112515.1,286046969.6,N
1598112535.9,286046971.7,N
1598112555.7,286046971.6,N
1598112575.6,286046970.1,N
1598112595.4,286046968.8,Y
1598112615.2,286046987.4,P
1598112635.1,286046991.6,N
1598112636.0,286046991.6,N
1598112655.8,286046993.1,N
1598112675.7,286046993.9,N
1598112695.5,286046998.0,N
1598112715.3,286046995.2,N
1598112735.2,286046993.3,N
1598112755.0,286046994.2,N
1598112755.9,286046994.2,N
1598112775.7,286046991.7,N
1598112795.6,286046991.8,N
1598112815.4,286046991.7,N
1598112835.3,286046990.2,N
1598112855.1,286046991.1,N
1598112856.0,286046991.1,N
1598112875.9,286046991.5,N
1598112895.7,286046991.1,N
1598112915.5,286046992.3,N
1598112935.4,286046992.5,N
1598112955.2,286046992.5,N
1598112975.0,286046988.8,Y
1598112976.0,286046988.8,P
1598112995.8,286046996.6,N
1598113015.6,286047000.2,N
1598113035.5,286047000.4,N
1598113055.3,286046998.5,N
1598113075.1,286046998.8,N
1598113095.9,286046998.9,N
1598113115.7,286046997.4,N
1598113135.6,286046993.7,N
1598113155.4,286046993.6,N
1598113175.2,286046992.1,N
1598113195.1,286046991.0,N
1598113196.0,286046991.0,N
1598113215.8,286046991.5,N
1598113235.7,286046988.6,Y
1598113255.5,286046996.0,P
1598113275.3,286046993.8,P
1598113295.2,286046994.4,P
1598113315.0,286046994.1,Y
1598113315.9,286046994.1,P
1598113335.7,286047002.2,P
1598113355.6,286047002.9,N
1598113375.4,286047003.3,N
1598113395.3,286047003.7,N
1598113415.1,286047002.9,N
1598113435.9,286047005.8,N
1598113455.7,286047004.8,N
1598113475.5,286047004.7,N
1598113495.4,286047002.9,N
1598113515.2,286047005.7,N
1598113535.1,286047003.4,N
1598113536.0,286047003.4,N
1598113555.8,286047006.0,N
1598113575.7,286047005.0,N
1598113595.5,286047005.5,N
1598113615.3,286047005.4,N
1598113635.2,286047005.1,N
1598113655.0,286047007.4,N
1598113655.9,286047007.4,N
1598113675.8,286047010.7,Y
1598113695.6,286047008.3,P
1598113715.4,286047013.1,P
1598113735.3,286047018.2,P
1598113755.1,286047016.8,Y
1598113775.8,286047003.7,P
1598113795.7,286047001.3,N
1598113815.5,286047002.5,N
1598113835.4,286047002.8,N
1598113855.2,286047000.4,N
1598113875.0,286046998.8,N
1598113875.9,286046998.8,N
1598113895.8,286046997.1,N
1598113915.6,286046994.9,N
1598113935.4,286046995.7,N
1598113955.3,286046996.0,N
1598113975.1,286046994.4,N
1598113995.9,286046994.5,N
1598114015.7,286046995.6,N
1598114035.5,286046995.3,N
1598114055.4,286046996.1,N
1598114075.2,286046995.6,N
1598114095.0,286046995.4,N
1598114096.0,286046995.4,N
1598114115.8,286046993.5,N
1598114135.6,286046994.7,N
1598114155.5,286046990.7,N
1598114175.3,286046991.0,N
1598114195.1,286046993.2,N
1598114215.9,286046991.6,N
1598114235.7,286046993.0,N
1598114255.6,286047000.5,N
1598114275.4,286047004.2,N
1598114295.2,286047003.0,N
1598114315.1,286047011.7,N
1598114316.0,286047011.7,N
1598114335.8,286047015.4,N
1598114355.6,286047016.3,N
1598114375.5,286047017.0,N
1598114395.3,286047014.5,N
1598114415.2,286047013.6,N
1598114435.9,286047010.7,N
1598114455.7,286047006.6,N
1598114475.6,286047006.2,N
1598114495.4,286047010.3,N
1598114515.2,286047017.2,N
1598114535.1,286047021.4,N
1598114536.0,286047021.4,N
1598114555.8,286047019.2,N
1598114575.7,286047017.8,N
1598114595.5,286047018.7,N
1598114615.3,286047014.4,N
1598114635.2,286047016.2,N
1598114655.0,286047018.6,N
1598114655.9,286047018.6,N
1598114675.8,286047017.7,N
1598114695.6,286047016.8,N
1598114715.4,286047017.7,N
1598114735.3,286047025.6,Y
1598114755.1,286047013.2,P
1598114775.9,286047011.1,P
1598114795.7,286047010.3,P
1598114815.5,286047007.2,Y
1598114835.4,286046995.9,P
1598114855.2,286046992.5,N
1598114875.0,286046992.4,N
1598114875.9,286046992.4,N
1598114895.8,286046991.5,N
1598114915.6,286046989.8,N
1598114935.5,286046987.8,N
1598114955.3,286046986.1,N
1598114975.1,286046985.8,N
1598114995.9,286046986.3,N
1598115015.7,286046983.7,N
1598115035.6,286046983.9,N
1598115055.4,286046983.9,N
1598115075.2,286046985.9,N
1598115095.1,286046991.6,N
1598115096.0,286046991.6,N
1598115115.8,286046991.8,N
1598115135.7,286046999.2,N
1598115155.5,286047002.5,N
1598115175.3,286047005.9,N
1598115195.2,286047001.5,N
1598115215.0,286046998.9,N
1598115215.9,286046998.9,N
1598115235.7,286046995.1,N
1598115255.6,286046993.4,N
1598115275.4,286046993.7,N
1598115295.3,286046994.6,N
1598115315.1,286046990.7,N
1598115316.0,286046990.7,N
1598115335.8,286046991.9,N
1598115355.7,286046990.5,N
1598115375.5,286046991.6,N
1598115395.3,286046991.1,N
1598115415.2,286046987.7,N
1598115435.0,286046989.2,N
1598115435.9,286046989.2,N
1598115455.8,286046991.3,N
1598115475.6,286046989.1,N
1598115495.4,286046989.5,N
1598115515.3,286046989.5,N
1598115535.1,286046991.6,N
1598115555.9,286046987.0,N
1598115575.7,286046989.9,N
1598115595.5,286046989.4,N
